Flag for Canada Weather past 2 weeks in Kuujjuaq, Quebec, Canada

Now
5 °F

Light snow. Passing clouds.


Feels Like: -11 °F
Forecast: 0 / 14 °F
Wind: 12 mph from North

Location: Kuujjuaq

Current Time: Mar 30, 2015 at 11:45:03 PM

Latest Report: Mar 30, 2015 at 10:00 PM


Visibility: 15 mi

Pressure: 29.63 "Hg

Humidity: 78%

Dew point: 0 °F

Location of KuujjuaqLocation

Historic Weather in Kuujjuaq — Graph

°F

Kuujjuaq temperature yesterday

Maximum temperature yesterday: 7 °F (at 1:00 PM)
Minimum temperature yesterday: -9 °F (at 7:00 AM)
Average temperature yesterday: 1 °F

Past Weeks' High & Low Weather Summary

 TemperatureHumidityPressure
High34 °F (Mar 16, 4:00 PM)92% (Mar 21, 5:00 AM)30.22 "Hg (Mar 21, 5:00 AM)
Low-24 °F (Mar 26, 6:00 AM)27% (Mar 16, 4:00 PM)29.42 "Hg (Mar 28, 2:51 PM)
Average0 °F64%29.85 "Hg
* Reported Mar 15 10:00 PM — Mar 30 10:00 PM, Kuujjuaq, Weather by CustomWeather, © 2015

Note: Actual official high and low records may vary slightly from our data, if they occured in-between our weather recording intervals... More about our weather records

Advertising

Kuujjuaq weather history for previous 24 hours

 ConditionsComfort  
Time TempWeatherWind HumidityBarometerVisibility
10:00 PM
Mon, Mar 30
5 °FLight snow. Passing clouds.12 mph78%29.63 "Hg15 mi
9:00 PM7 °FLight snow. Partly cloudy.12 mph78%29.63 "Hg15 mi
8:00 PM7 °FBroken clouds.9 mph78%29.62 "Hg15 mi
7:00 PM9 °FBroken clouds.12 mph72%29.61 "Hg15 mi
6:00 PM10 °FBroken clouds.14 mph67%29.59 "Hg15 mi
5:00 PM10 °FBroken clouds.12 mph67%29.59 "Hg15 mi
4:00 PM10 °FPartly sunny.14 mph67%29.57 "Hg15 mi
3:00 PM10 °FPartly sunny.14 mph67%29.56 "Hg15 mi
2:00 PM10 °FPartly sunny.12 mph67%29.55 "Hg15 mi
1:00 PM10 °FPartly sunny.13 mph61%29.54 "Hg15 mi
12:00 PM9 °FBroken clouds.13 mph66%29.54 "Hg15 mi
11:00 AM9 °FBroken clouds.12 mph66%29.54 "Hg15 mi
10:00 AM7 °FBroken clouds.15 mph72%29.54 "Hg15 mi
9:00 AM7 °FPartly sunny.15 mph72%29.54 "Hg15 mi
8:00 AM5 °FLight snow. Broken clouds.16 mph72%29.52 "Hg15 mi
7:00 AM3 °FLight snow. Partly cloudy.9 mph78%29.52 "Hg15 mi
6:00 AM1 °FLight snow. Partly cloudy.8 mph78%29.52 "Hg8 mi
5:00 AM1 °FLight snow. Passing clouds.10 mph78%29.51 "Hg15 mi
4:00 AM1 °FLight snow. Partly cloudy.10 mph78%29.50 "Hg15 mi
3:00 AM3 °FLight snow. Passing clouds.12 mph72%29.51 "Hg15 mi
2:00 AM3 °FLight snow. Mostly cloudy.10 mph78%29.51 "Hg12 mi
1:00 AM3 °FLight snow. Mostly cloudy.10 mph78%29.52 "Hg8 mi
12:00 AM3 °FLight snow. Overcast.9 mph78%29.53 "Hg4 mi
11:00 PM
Sun, Mar 29
3 °FLight snow. Overcast.8 mph78%29.54 "Hg4 mi
Weather by CustomWeather, © 2015

See weather overviewHow to use our weather pages